Regional Weather Roundup
Issued by NWS

Home | Current Version | Previous Version | Graphics & Text | Print | Product List | Glossary On
Versions: 1 2 3 4 5 6 7 8 9 10 11 12 13 14 15 16 17 18 19 20 21 22 23 24 25 26 27 28 29 30 31 32 33 34 35 36 37 38 39 40 41 42 43 44 45 46 47 48 49 50
000
ASUS43 KFSD 222302
RWRSD

WEATHER ROUNDUP FOR SOUTH DAKOTA
NATIONAL WEATHER SERVICE SIOUX FALLS SD
600 PM CDT MON AUG 22 2016

NOTE: "FAIR" INDICATES FEW OR NO CLOUDS BELOW 12,000 FEET WITH NO
SIGNIFICANT WEATHER AND/OR OBSTRUCTIONS TO VISIBILITY.


SDZ001>005-009-010-012>017-230000-
NORTHWEST AND NORTH CENTRAL SOUTH DAKOTA

CITY           SKY/WX    TMP DP  RH WIND       PRES   REMARKS
BUFFALO          N/A     93  49  22 NW12      29.60R
FAITH            N/A     98  42  14 W12       29.61S
MOBRIDGE       SUNNY     99  58  25 S22G31    29.54F HX  98
$$

SDZ012>016-024>037-041>051-057-063-072>074-230000-
SOUTHWEST AND SOUTH CENTRAL SOUTH DAKOTA

CITY           SKY/WX    TMP DP  RH WIND       PRES   REMARKS
RAPID CTY ARPT SUNNY     98  30   9 W10       29.67R
PIERRE         SUNNY     97  59  28 S21G30    29.59F HX  96
CUSTER         CLOUDY    88  19   8 SW8G17    29.89S
ELLSWORTH AFB  SUNNY     97  31  10 W8        29.67S
PHILIP         SUNNY    101  47  16 SW10      29.59F HX  97
PINE RIDGE     CLOUDY    91  49  23 S17G24    29.71S
WINNER         FAIR      94  63  35 S15       29.70S HX  95
$$

SDZ004>011-016>023-039-040-230000-
NORTHEAST SOUTH DAKOTA

CITY           SKY/WX    TMP DP  RH WIND       PRES   REMARKS
ABERDEEN       SUNNY     88  67  49 S18G25    29.65S
WATERTOWN      SUNNY     84  66  54 S15G30    29.75S
BROOKINGS      SUNNY     83  67  58 S20G32    29.79R
$$

SDZ017-020-022-023-036>040-048>070-230000-
SOUTHEAST SOUTH DAKOTA

CITY           SKY/WX    TMP DP  RH WIND       PRES   REMARKS
SIOUX FALLS    PTSUNNY   85  65  51 S23G38    29.82S
HURON          SUNNY     90  64  42 S22G29    29.69S
CHAMBERLAIN    SUNNY     92  66  42 S14G23    29.70S
MITCHELL       SUNNY     89  64  43 S24G33    29.74R
YANKTON        SUNNY     86  61  42 S26G35    29.80F
$$

ABBREVIATIONS USED IN REMARKS
   TC - TEMPERATURE IN CELSIUS
  WCI - WIND CHILL INDEX
   HX - HEAT INDEX
  VSB - VISIBILITY





USA.gov is the U.S. government's official web portal to all federal, state and local government web resources and services.